Date String (YYYY-MM-DD hh:mm:ss) UTC,Instrument flags,Ambient pressure (hPa),Sample flow (lpm),Bypass flow (lpm),Sample temperature (°C),Ambient temperature (°C),ASC tube jacket temperature (°C),LED temperature (°C),Box temperature (°C),Sample RH (%),Span deviation,Mass concentration (μg/m³),Mass concentration (μg/m³),Mass concentration (μg/m³)
DateTimeUTC,F1_M11,P_M11,Q1_M11,Q2_M11,T1_M11,T2_M11,T3_M11,T4_M11,T5_M11,U1_M11,ZSPAN_M11,X2_M11,X0_M11,X1_M11
2023-01-08 01:00:00,,0830.0,5.00,0.00,26.8,25.1,00.0,35.7,28.5,11.3,0004.0,0016.08,0023.34,0015.24
2023-01-08 01:01:00,,0830.1,4.99,0.00,26.8,25.1,00.0,35.7,28.5,11.4,0004.0,0015.95,0022.47,0015.14
2023-01-08 01:02:00,,0830.1,4.99,0.00,26.8,25.1,00.0,35.7,28.5,11.4,0004.1,0015.83,0023.00,0015.05
2023-01-08 01:03:00,,0830.0,5.00,0.00,26.7,25.1,00.0,35.7,28.5,11.4,0004.4,0015.72,0023.34,0014.96
2023-01-08 01:04:00,,0830.1,5.01,0.00,26.7,25.0,00.0,35.7,28.5,11.3,0004.3,0015.62,0023.29,0014.89
2023-01-08 01:05:00,,0830.1,5.01,0.00,26.7,25.0,00.0,35.6,28.5,11.2,0004.5,0015.54,0024.10,0014.80
2023-01-08 01:06:00,,0830.0,5.00,0.00,26.7,25.0,00.0,35.6,28.4,11.2,0004.3,0015.55,0024.17,0014.79
2023-01-08 01:07:00,,0830.1,4.99,0.00,26.7,24.9,00.0,35.6,28.4,11.1,0004.2,0015.47,0023.76,0014.74
2023-01-08 01:08:00,,0830.1,5.00,0.00,26.7,24.9,00.0,35.6,28.4,11.1,0004.1,0015.44,0023.78,0014.73
2023-01-08 01:09:00,,0830.0,4.99,0.00,26.7,24.9,00.0,35.6,28.4,11.1,0003.9,0015.40,0023.64,0014.68
2023-01-08 01:10:00,,0830.0,5.01,0.00,26.6,24.8,00.0,35.6,28.4,11.1,0003.9,0015.41,0023.45,0014.68
2023-01-08 01:11:00,,0830.0,5.01,0.00,26.6,24.8,00.0,35.6,28.3,11.1,0004.0,0015.43,0023.46,0014.68
2023-01-08 01:12:00,,0830.1,5.01,0.00,26.6,24.8,00.0,35.6,28.3,11.1,0004.2,0015.53,0023.50,0014.78
2023-01-08 01:13:00,,0830.1,5.00,0.00,26.6,24.9,00.0,35.5,28.3,11.1,0004.1,0015.66,0022.77,0014.92
2023-01-08 01:14:00,,0830.1,5.00,0.00,26.6,24.9,00.0,35.5,28.3,11.2,0004.3,0015.78,0022.14,0015.03
2023-01-08 01:15:00,,0830.0,5.01,0.00,26.6,24.8,00.0,35.5,28.3,11.3,0004.4,0015.91,0023.21,0015.14
2023-01-08 01:16:00,,0830.0,5.00,0.00,26.6,24.8,00.0,35.5,28.3,11.4,0004.3,0016.05,0023.16,0015.27
2023-01-08 01:17:00,,0829.9,5.00,0.00,26.5,24.7,00.0,35.5,28.2,11.4,0004.3,0016.20,0023.96,0015.42
2023-01-08 01:18:00,,0829.9,5.01,0.00,26.5,24.6,00.0,35.5,28.2,11.1,0003.9,0016.16,0023.80,0015.38
2023-01-08 01:19:00,,0830.0,5.01,0.00,26.5,24.6,00.0,35.5,28.2,11.1,0003.5,0016.08,0023.23,0015.28
2023-01-08 01:20:00,,0829.9,4.99,0.00,26.5,24.7,00.0,35.4,28.2,11.2,0003.6,0016.23,0023.76,0015.36
2023-01-08 01:21:00,,0829.9,5.00,0.00,26.5,24.7,00.0,35.4,28.2,11.2,0003.9,0016.29,0024.19,0015.41
2023-01-08 01:22:00,,0829.9,5.00,0.00,26.4,24.7,00.0,35.4,28.2,11.5,0003.6,0016.44,0024.36,0015.54
2023-01-08 01:23:00,,0829.9,5.00,0.00,26.4,24.7,00.0,35.4,28.2,11.5,0003.5,0016.48,0024.45,0015.57
2023-01-08 01:24:00,,0829.8,5.00,0.00,26.4,24.7,00.0,35.4,28.2,11.1,0003.6,0016.32,0024.55,0015.38
2023-01-08 01:25:00,,0829.9,5.02,0.00,26.4,24.8,00.0,35.4,28.2,10.9,0003.4,0015.95,0024.21,0015.05
2023-01-08 01:26:00,,0830.0,5.01,0.00,26.4,24.8,00.0,35.4,28.2,10.9,0003.5,0015.73,0022.69,0014.82
2023-01-08 01:27:00,,0829.9,5.02,0.00,26.4,24.8,00.0,35.3,28.2,10.8,0003.6,0015.37,0021.56,0014.48
2023-01-08 01:28:00,,0829.9,5.01,0.00,26.4,24.8,00.0,35.3,28.2,10.6,0003.4,0014.85,0020.10,0014.05
2023-01-08 01:29:00,,0829.9,5.00,0.00,26.4,24.7,00.0,35.3,28.2,10.4,0003.6,0014.48,0019.34,0013.67
2023-01-08 01:30:00,,0829.9,5.03,0.00,26.4,24.6,00.0,35.3,28.1,10.2,0003.9,0014.11,0018.87,0013.34
2023-01-08 01:31:00,,0830.0,4.98,0.00,26.4,24.6,00.0,35.3,28.0,10.1,0004.1,0013.46,0017.90,0012.78
2023-01-08 01:32:00,,0830.0,5.02,0.00,26.3,24.5,00.0,35.3,28.0,10.0,0003.7,0012.82,0016.59,0012.22
2023-01-08 01:33:00,,0830.0,5.00,0.00,26.3,24.4,00.0,35.3,27.9,09.7,0003.8,0011.99,0016.06,0011.46
2023-01-08 01:34:00,,0830.1,5.01,0.00,26.2,24.3,00.0,35.2,27.9,09.6,0003.8,0011.09,0015.04,0010.61
2023-01-08 01:35:00,,0830.1,4.98,0.00,26.2,24.3,00.0,35.2,27.8,09.6,0003.9,0010.34,0014.03,0009.91
2023-01-08 01:36:00,,0830.1,4.98,0.00,26.1,24.1,00.0,35.2,27.7,09.6,0003.9,0009.89,0013.41,0009.47
2023-01-08 01:37:00,,0830.1,5.00,0.00,26.1,23.8,00.0,35.2,27.6,09.8,0004.0,0009.38,0012.95,0008.98
2023-01-08 01:38:00,,0830.1,5.00,0.00,26.0,23.7,00.0,35.1,27.6,10.1,0003.5,0009.09,0012.67,0008.68
2023-01-08 01:39:00,,0830.1,5.00,0.00,26.0,23.6,00.0,35.1,27.5,09.9,0004.2,0008.82,0012.48,0008.39
2023-01-08 01:40:00,,0830.1,5.00,0.00,25.9,23.5,00.0,35.1,27.4,09.8,0004.5,0008.51,0012.25,0008.10
2023-01-08 01:41:00,,0830.1,5.00,0.00,25.8,23.4,00.0,35.0,27.4,10.2,0004.2,0008.41,0012.50,0007.98
2023-01-08 01:42:00,,0830.0,4.99,0.00,25.8,23.4,00.0,35.0,27.3,10.4,0004.1,0008.53,0012.64,0008.09
2023-01-08 01:43:00,,0830.0,5.00,0.00,25.7,23.3,00.0,34.9,27.2,10.4,0004.2,0008.68,0012.84,0008.20
2023-01-08 01:44:00,,0830.0,5.00,0.00,25.7,23.3,00.0,34.9,27.2,10.4,0004.1,0008.90,0012.67,0008.39
2023-01-08 01:45:00,,0830.0,4.99,0.00,25.6,23.4,00.0,34.8,27.2,10.5,0004.0,0009.22,0012.98,0008.70
2023-01-08 01:46:00,,0829.9,5.02,0.00,25.6,23.6,00.0,34.8,27.2,10.6,0003.9,0009.57,0013.40,0009.04
2023-01-08 01:47:00,,0829.9,5.00,0.00,25.6,23.6,00.0,34.7,27.2,10.6,0003.9,0009.87,0013.65,0009.35
2023-01-08 01:48:00,,0829.9,4.99,0.00,25.6,23.7,00.0,34.7,27.2,09.9,0003.5,0009.83,0013.63,0009.34
2023-01-08 01:49:00,,0830.0,5.00,0.00,25.6,23.8,00.0,34.7,27.2,09.8,0003.6,0009.54,0013.34,0009.09
2023-01-08 01:50:00,,0830.0,5.00,0.00,25.5,23.7,00.0,34.6,27.1,09.9,0003.5,0009.34,0013.10,0008.91
2023-01-08 01:51:00,,0830.0,5.00,0.00,25.5,23.5,00.0,34.6,27.1,09.8,0003.3,0009.32,0013.01,0008.88
2023-01-08 01:52:00,,0830.0,5.01,0.00,25.4,23.2,00.0,34.6,26.9,09.8,0003.6,0009.17,0012.35,0008.72
2023-01-08 01:53:00,,0830.1,5.00,0.00,25.3,23.2,00.0,34.5,26.8,09.7,0003.8,0008.72,0011.86,0008.32
2023-01-08 01:54:00,,0830.1,5.00,0.00,25.3,23.0,00.0,34.5,26.7,09.7,0003.5,0008.25,0011.33,0007.88
2023-01-08 01:55:00,,0830.1,5.00,0.00,25.2,22.8,00.0,34.4,26.7,09.8,0003.7,0007.87,0010.94,0007.54
2023-01-08 01:56:00,,0830.1,5.00,0.00,25.1,22.8,00.0,34.4,26.6,09.7,0003.8,0007.44,0010.60,0007.14
2023-01-08 01:57:00,,0830.1,4.99,0.00,25.1,22.7,00.0,34.3,26.6,09.6,0001.9,0006.92,0009.93,0006.67
2023-01-08 01:58:00,,0830.1,4.99,0.00,25.0,22.6,00.0,34.3,26.5,09.6,0000.0,0006.39,0009.42,0006.12
2023-01-08 01:59:00,,0830.0,5.00,0.00,24.9,22.4,00.0,34.2,26.4,09.6,0000.0,0006.18,0009.00,0005.91
